Location: Biharia
(46.4333°N, 22.8000°E)
Time: 19:13:45
(UTC+00:00)

CSL-04 Rocket - Pass Details

Date: 29 May 2022
Orbit: 807 x 859 km, 98.9° (Epoch: 28 June)

Event Time Altitude Azimuth Distance (km) Brightness Sun altitude
Rises 19:18:41 0° 205° (SSW) 3,324 6.6 -9.8°
Reaches altitude 10° 19:21:35 10° 221° (SW) 2,404 6.0 -10.1°
Maximum altitude 19:25:30 21° 269° (W) 1,792 6.0 -10.6°
Drops below altitude 10° 19:29:28 10° 317° (NW) 2,441 7.7 -11.0°
Sets 19:32:28 0° 333° (NNW) 3,390 8.6 -11.4°
